ISS (ZARYA) (25544 NORAD) Tracking and Keplerian Element Data

This shows tracking and keplerian element data for the satellite.

Feedback or suggestion? Click here.




ElementValue
Catalog25544
NameISS (ZARYA)
Epoch Orbit36955
Epoch Day325.33190512
Epoch Year2022
RAAN278.1153
Inclination51.6438
Eccentricity0.0007034
Argument of Perigee97.5095
Mean Anonmoly39.9612
Mean Motion15.50117677
Decay Rate9.6E-05
L11 25544U 98067A 22325.33190512 .00009600 00000+0 17519-3 0 9998
L22 25544 51.6438 278.1153 0007034 97.5095 39.9612 15.50117677369553



Live tracking and technical data element details for ISS (ZARYA) (NORAD 25544). ISS (ZARYA) can be tracked NOW for your location showing map with azimuth and elevation plus other details from your city location.







IsCatalogInMostPopularTable: catalog: 25544, numindb: 120131
Update: records affected: 1



GetName: 25544 ISS (ZARYA)

Hit Count: updated at: Fri, 02 Dec 2022 12:41:48 GMT